Altoona, PA

9:11 AM EST on November 20, 2019 (GMT -0500)
Altoona-Blair County

Weather History for KAOO - September, 2019

Change the Weather History Date:

Sunday, September 22, 2019

  Actual Average Record
Temperature  
Mean Temperature 74 °F 59 °F  
Max Temperature 87 °F 70 °F 90 °F (2005)
Min Temperature 60 °F 49 °F 36 °F (1991)
Degree Days  
Heating Degree Days 0 7  
Month to date heating degree days 20 82  
Since 1 July heating degree days 29 114  
Cooling Degree Days 9 1  
Month to date cooling degree days 71 41  
Year to date cooling degree days 716 520  
Growing Degree Days 24 (Base 50)    
Moisture  
Dew Point 62 °F    
Average Humidity 70    
Maximum Humidity 97    
Minimum Humidity 43    
Precipitation  
Precipitation 0.00 in 0.12 in 2.40 in (2002)
Month to date precipitation 1.03 2.59  
Year to date precipitation 30.72 26.52  
Sea Level Pressure  
Sea Level Pressure 30.13 in    
Wind  
Wind Speed 3 mph (SW)    
Max Wind Speed 9 mph    
Max Gust Speed 15 mph    
Visibility 6 miles    
Events Fog    
T = Trace of Precipitation, MM = Missing Value Source: NWS Daily Summary

Daily Weather History Graph

Daily Weather History Graph

Search for Another Location

Airport or City:

Astronomy

Sep. 22, 2019 Rise Set
Actual Time 7:00 AM EDT 7:10 PM EDT
Civil Twilight 6:33 AM EDT 7:37 PM EDT
Nautical Twilight 6:01 AM EDT 8:09 PM EDT
Astronomical Twilight 5:29 AM EDT 8:41 PM EDT
Moon No Moon Rise 3:05 PM EDT (9/22)
Length of Visible Light 13h 04m
Length of Day
12h 10m
Last Quarter, 44% of the Moon is Illuminated
Sep 22
Last Quarter
Sep 28
New
Oct 5
First Quarter
Oct 13
Full
Oct 21
Last Quarter

Hourly Weather History & Observations

Time (EDT) Temp. Heat Index Dew Point Humidity Pressure Visibility Wind Dir Wind Speed Gust Speed Precip Events Conditions
12:53 AM 64.9 °F - 61.0 °F 87% 30.19 in 8.0 mi Calm Calm - N/A   Partly Cloudy
1:53 AM 63.0 °F - 59.0 °F 87% 30.19 in 5.0 mi Calm Calm - N/A   Clear
2:53 AM 63.0 °F - 60.1 °F 90% 30.18 in 5.0 mi WNW 3.5 mph - N/A   Clear
3:53 AM 63.0 °F - 60.1 °F 90% 30.17 in 4.0 mi Calm Calm - N/A   Clear
4:36 AM 62.1 °F - 60.1 °F 93% 30.19 in 2.5 mi SSE 4.6 mph - N/A   Clear
4:53 AM 63.0 °F - 61.0 °F 93% 30.17 in 3.0 mi Calm Calm - N/A   Clear
5:53 AM 61.0 °F - 59.0 °F 93% 30.17 in 4.0 mi Calm Calm - N/A   Clear
6:53 AM 61.0 °F - 57.9 °F 90% 30.19 in 2.0 mi Calm Calm - N/A   Clear
6:59 AM 60.1 °F - 57.9 °F 93% 30.21 in 0.8 mi SW 3.5 mph - N/A   Clear
7:07 AM 60.1 °F - 57.9 °F 93% 30.21 in 0.5 mi Calm Calm - N/A Fog Fog
7:11 AM 61.0 °F - 59.0 °F 93% 30.21 in 1.0 mi Calm Calm - N/A   Clear
7:40 AM 63.0 °F - 61.0 °F 93% 30.21 in 1.5 mi South 3.5 mph - N/A   Clear
7:53 AM 64.0 °F - 61.0 °F 90% 30.19 in 1.8 mi Calm Calm - N/A   Clear
8:07 AM 64.9 °F - 63.0 °F 93% 30.21 in 2.0 mi Calm Calm - N/A   Clear
8:22 AM 66.9 °F - 64.0 °F 90% 30.21 in 4.0 mi Calm Calm - N/A   Clear
8:53 AM 70.0 °F - 64.0 °F 81% 30.19 in 5.0 mi Calm Calm - N/A   Haze
9:53 AM 75.0 °F - 64.9 °F 71% 30.19 in 10.0 mi WSW 5.8 mph - N/A   Clear
10:53 AM 79.0 °F - 64.9 °F 62% 30.17 in 10.0 mi Variable 3.5 mph - N/A   Clear
11:53 AM 82.0 °F 83.8 °F 64.9 °F 56% 30.15 in 10.0 mi Variable 4.6 mph - N/A   Clear
12:53 PM 84.9 °F 86.1 °F 64.0 °F 49% 30.12 in 10.0 mi West 4.6 mph - N/A   Scattered Clouds
1:53 PM 84.0 °F 85.4 °F 64.0 °F 51% 30.09 in 10.0 mi Calm Calm - N/A   Overcast
2:53 PM 84.0 °F 84.9 °F 63.0 °F 49% 30.07 in 10.0 mi NNW 4.6 mph - N/A   Scattered Clouds
3:53 PM 87.1 °F 87.8 °F 63.0 °F 44% 30.05 in 10.0 mi SW 6.9 mph - N/A   Mostly Cloudy
4:53 PM 86.0 °F 86.3 °F 62.1 °F 44% 30.04 in 10.0 mi West 3.5 mph - N/A   Scattered Clouds
5:53 PM 84.9 °F 84.4 °F 59.0 °F 41% 30.04 in 10.0 mi WSW 6.9 mph - N/A   Scattered Clouds
6:53 PM 81.0 °F 81.7 °F 61.0 °F 50% 30.03 in 10.0 mi South 4.6 mph - N/A   Clear
7:53 PM 73.0 °F - 61.0 °F 66% 30.04 in 10.0 mi Calm Calm - N/A   Clear
8:53 PM 75.9 °F - 62.1 °F 62% 30.03 in 10.0 mi South 5.8 mph - N/A   Clear
9:53 PM 75.0 °F - 63.0 °F 66% 30.02 in 10.0 mi SSW 5.8 mph - N/A   Mostly Cloudy
10:53 PM 69.1 °F - 62.1 °F 78% 30.01 in 10.0 mi Calm Calm - N/A   Clear
11:53 PM 69.1 °F - 62.1 °F 78% 30.00 in 10.0 mi Calm Calm - N/A   Clear